Weather in Lake Louise

Canada     51°25′31″N   116°10′47″W
temp.,
°C
wind,
m/s
gust,
m/s
humid.,
%
clouds,
%
prec.,
mm/h
press.,
hPa
HPBL,
m
11 april, sun
sun1100:00−19nne32925 0.7 103216
03:00−21nne329115 0.0 103513
06:00−21ne229093 0.0 103711
09:00−12ne118064 0.0 1029124
12:00−7ssw1176100 0.2 10251022
15:00−5wsw2261100 1.1 10231322
18:00−5w226274 1.8 10241047
21:00−10nnw2291100 0.5 102928
12 april, mon
mon1200:00−14ene229752 0.9 103415
03:00−16ne2297100 0.2 103820
06:00−17ne2296100 0.2 104015
09:00−10ne227958 0.0 1035148
12:00−5e2258100 0.1 10321643
15:00−4ene1159100 0.3 10311484
18:00−4ne115387 0.6 10301334
21:00−11ne228748 0.3 103710
13 april, tue
tue1300:00−14ene22948 0.3 104015
03:00−16ne229814 0.0 104314
06:00−17ne22976 0.0 104412
09:00−9e11846 0.0 1036126
12:00−3ssw11675 0.0 1031636
15:00−1wnw016523 0.0 1028786
18:00−1ene11649 0.0 1026794
21:00−7n11855 0.0 103110
14 april, wed
wed1400:00−10ne22885 0.0 103414
03:00−11ne22854 0.0 103414
06:00−11ne22790 0.0 103414
09:00−3ne22592 0.0 102897
12:00+2ene22565 0.0 1023551
15:00+3ne22586 0.0 1022815
18:00+3ne22605 0.0 1021736
21:00−4ne22865 0.0 102612
15 april, thu
thu1500:00−5ne32815 0.0 102823
03:00−6ne22825 0.0 102920
06:00−7ne22820 0.0 102923
09:00−2ne22673 0.0 1025153
12:00+1ene226412 0.0 1023934
15:00+3ne235316 0.0 10221336
18:00+3nne124916 0.0 10211322
21:00−2ene117335 0.0 102410